Location: Arcueil
(48.7999°N, 2.3326°E)
Time: 15:01:36
(UTC+00:00)

Cosmos 1763 Rocket - Pass Details

Date: 03 February 2023
Orbit: 733 x 778 km, 74.0° (Epoch: 25 March)

Event Time Altitude Azimuth Distance (km) Brightness Sun altitude
Rises 18:16:20 0° 334° (NNW) 3,229 7.0 -14.2°
Reaches altitude 10° 18:18:44 10° 332° (NNW) 2,292 6.2 -14.6°
Maximum altitude 18:23:53 66° 252° (WSW) 817 3.9 -15.4°
Drops below altitude 10° 18:28:55 10° 170° (S) 2,247 5.9 -16.3°
Sets 18:31:15 0° 168° (SSE) 3,160 6.6 -16.6°
